KB6LA Weather Reports


time (UTC)temp
C
wind
direction
speed
KPH
gust
KPH
rain 1hr
cm
rain 24hr
cm
rain mn
cm
humidity
%
barometer
mb
20260510023251 15 229 6.4 12.9 0.00 0.00 0.00 92 1011.1
20260510022744 15 267 4.8 11.3 0.00 0.00 0.00 92 1011.1
20260510022236 15 237 4.8 11.3 0.00 0.00 0.00 92 1011.1
20260510021729 15 258 6.4 11.3 0.00 0.00 0.00 92 1011.1
20260510021221 15 236 9.7 14.5 0.00 0.00 0.00 92 1011.1
20260510020713 15 232 6.4 14.5 0.00 0.00 0.00 91 1010.7
20260510020206 15 232 4.8 12.9 0.00 0.00 0.00 91 1010.7
20260510015658 15 262 6.4 12.9 0.00 0.00 0.00 91 1010.7
20260510015151 15 205 11.3 16.1 0.00 0.00 0.00 91 1010.7
20260510014135 15 230 9.7 16.1 0.00 0.00 0.00 91 1010.7
20260510013628 15 247 12.9 16.1 0.00 0.00 0.00 90 1010.7
20260510013120 15 294 6.4 14.5 0.00 0.00 0.00 90 1010.7
20260510012613 15 216 6.4 14.5 0.00 0.00 0.00 89 1010.7
20260510012105 15 272 6.4 14.5 0.00 0.00 0.00 89 1010.7
20260510011558 15 278 9.7 16.1 0.00 0.00 0.00 89 1010.7
20260510011050 15 259 9.7 16.1 0.00 0.00 0.00 89 1010.7
20260510010542 15 247 11.3 16.1 0.00 0.00 0.00 89 1010.7
20260510010035 15 218 12.9 16.1 0.00 0.00 0.00 88 1010.7
20260510005527 16 245 9.7 14.5 0.00 0.00 0.00 88 1010.7
20260510005019 16 258 6.4 16.1 0.00 0.00 0.00 89 1010.7
20260510004512 16 239 6.4 22.5 0.00 0.00 0.00 88 1010.7
20260510004004 16 222 6.4 22.5 0.00 0.00 0.00 88 1010.7
20260510003458 16 256 14.5 20.9 0.00 0.00 0.00 86 1010.7
20260510002950 16 195 12.9 22.5 0.00 0.00 0.00 87 1010.7
20260510002441 16 238 16.1 22.5 0.00 0.00 0.00 86 1010.7
20260510001934 16 240 16.1 17.7 0.00 0.00 0.00 85 1010.7
20260510001426 16 222 4.8 17.7 0.00 0.00 0.00 86 1010.7
20260510000918 16 230 9.7 20.9 0.00 0.00 0.00 85 1010.7
20260510000411 16 221 11.3 20.9 0.00 0.00 0.00 86 1010.7
20260509235903 16 256 14.5 22.5 0.00 0.00 0.00 84 1010.7
20260509235356 17 192 12.9 22.5 0.00 0.00 0.00 83 1010.7
20260509234849 17 268 11.3 22.5 0.00 0.00 0.00 83 1010.7
20260509234340 17 250 11.3 22.5 0.00 0.00 0.00 82 1010.7
20260509232818 18 235 9.7 22.5 0.00 0.00 0.00 80 1010.7
20260509232310 17 216 8.0 22.5 0.00 0.00 0.00 80 1010.7
20260509231803 18 220 16.1 20.9 0.00 0.00 0.00 78 1010.7
20260509231255 18 231 11.3 20.9 0.00 0.00 0.00 78 1010.7
20260509230747 18 248 12.9 20.9 0.00 0.00 0.00 79 1010.7
20260509230240 18 202 17.7 20.9 0.00 0.00 0.00 79 1010.7
20260509225732 18 263 12.9 20.9 0.00 0.00 0.00 78 1010.7
20260509224716 19 212 9.7 17.7 0.00 0.00 0.00 76 1011.1
20260509224209 19 274 8.0 16.1 0.00 0.00 0.00 75 1011.1
20260509223154 18 212 12.9 24.1 0.00 0.00 0.00 78 1011.1
20260509221631 19 239 14.5 24.1 0.00 0.00 0.00 76 1011.1
20260509221123 19 220 16.1 22.5 0.00 0.00 0.00 76 1011.4
20260509220616 19 228 14.5 20.9 0.00 0.00 0.00 76 1011.4
20260509220108 19 259 12.9 20.9 0.00 0.00 0.00 77 1011.4
20260509215053 19 274 4.8 20.9 0.00 0.00 0.00 76 1011.4
20260509214545 19 281 9.7 20.9 0.00 0.00 0.00 75 1011.8
20260509214038 19 235 12.9 24.1 0.00 0.00 0.00 76 1011.8
20260509213530 19 259 8.0 25.7 0.00 0.00 0.00 75 1011.8
20260509212514 19 224 9.7 22.5 0.00 0.00 0.00 76 1011.8
20260509212007 19 242 14.5 22.5 0.00 0.00 0.00 74 1011.8
20260509211459 20 224 8.0 17.7 0.00 0.00 0.00 74 1011.8
20260509210952 19 245 8.0 20.9 0.00 0.00 0.00 74 1011.8
20260509210444 20 261 12.9 20.9 0.00 0.00 0.00 73 1011.8
20260509205937 20 245 17.7 17.7 0.00 0.00 0.00 72 1011.8
20260509205429 20 268 9.7 17.7 0.00 0.00 0.00 74 1012.1
20260509204922 20 255 9.7 17.7 0.00 0.00 0.00 75 1012.1
20260509204413 19 210 12.9 17.7 0.00 0.00 0.00 75 1012.1
20260509203906 20 232 12.9 17.7 0.00 0.00 0.00 73 1012.1
20260509203358 19 216 16.1 17.7 0.00 0.00 0.00 74 1012.1
20260509202851 19 262 12.9 17.7 0.00 0.00 0.00 74 1012.1
20260509202343 19 273 14.5 20.9 0.00 0.00 0.00 75 1012.1
20260509201836 19 238 14.5 20.9 0.00 0.00 0.00 74 1012.1
20260509201328 20 243 6.4 17.7 0.00 0.00 0.00 73 1012.1
20260509200820 19 220 8.0 17.7 0.00 0.00 0.00 74 1012.1
20260509200313 19 230 6.4 20.9 0.00 0.00 0.00 76 1012.1
20260509195805 19 246 8.0 20.9 0.00 0.00 0.00 75 1012.4
20260509195259 20 211 11.3 17.7 0.00 0.00 0.00 73 1012.4
20260509194243 19 256 6.4 16.1 0.00 0.00 0.00 75 1012.4
20260509193735 19 266 11.3 16.1 0.00 0.00 0.00 75 1012.4
20260509193227 20 261 8.0 20.9 0.00 0.00 0.00 74 1012.4
20260509192720 19 273 9.7 20.9 0.00 0.00 0.00 75 1012.4
20260509192212 19 256 8.0 16.1 0.00 0.00 0.00 75 1012.4
20260509191705 18 243 12.9 16.1 0.00 0.00 0.00 77 1012.4
20260509191157 19 252 11.3 17.7 0.00 0.00 0.00 76 1012.4
20260509190649 19 217 9.7 17.7 0.00 0.00 0.00 76 1012.8
20260509190142 19 226 6.4 17.7 0.00 0.00 0.00 75 1012.8
20260509185634 18 213 6.4 16.1 0.00 0.00 0.00 77 1012.8
20260509185127 19 261 8.0 16.1 0.00 0.00 0.00 76 1012.8
20260509184619 18 247 14.5 17.7 0.00 0.00 0.00 77 1012.8
20260509184111 18 328 3.2 20.9 0.00 0.00 0.00 77 1012.8
20260509183603 18 210 14.5 20.9 0.00 0.00 0.00 78 1012.8
20260509183057 18 220 12.9 20.9 0.00 0.00 0.00 78 1012.8
20260509181533 19 187 6.4 17.7 0.00 0.00 0.00 77 1012.8
20260509181026 19 188 6.4 16.1 0.00 0.00 0.00 77 1013.1
20260509180518 18 222 9.7 16.1 0.00 0.00 0.00 76 1013.1
20260509180011 19 198 9.7 17.7 0.00 0.00 0.00 77 1013.1
20260509174955 20 256 6.4 16.1 0.00 0.00 0.00 75 1013.1
20260509174448 19 260 4.8 11.3 0.00 0.00 0.00 75 1013.1
20260509173939 19 266 4.8 11.3 0.00 0.00 0.00 77 1012.8
20260509173433 18 249 3.2 12.9 0.00 0.00 0.00 77 1013.1
20260509172925 18 246 8.0 12.9 0.00 0.00 0.00 77 1012.8
20260509172417 18 6 1.6 14.5 0.00 0.00 0.00 79 1012.8
20260509171910 18 244 6.4 14.5 0.00 0.00 0.00 80 1013.1
20260509171402 18 249 4.8 16.1 0.00 0.00 0.00 80 1012.8
20260509170855 18 242 11.3 16.1 0.00 0.00 0.00 78 1012.8
20260509170346 18 241 1.6 6.4 0.00 0.00 0.00 78 1012.8
20260509165839 18 196 4.8 9.7 0.00 0.00 0.00 79 1012.8
20260509165331 18 256 4.8 9.7 0.00 0.00 0.00 78 1012.8
20260509164824 18 167 8.0 9.7 0.00 0.00 0.00 78 1012.4
20260509164316 18 259 1.6 4.8 0.00 0.00 0.00 79 1012.4
20260509163809 18 253 1.6 4.8 0.00 0.00 0.00 79 1012.8
20260509162754 17 125 1.6 4.8 0.00 0.00 0.00 80 1012.4
20260509162246 17 304 0.0 4.8 0.00 0.00 0.00 82 1012.8
20260509161738 17 207 1.6 4.8 0.00 0.00 0.00 83 1012.8
20260509161231 17 256 3.2 4.8 0.00 0.00 0.00 84 1012.8
20260509160723 17 229 3.2 4.8 0.00 0.00 0.00 85 1012.8
20260509160216 17 281 0.0 4.8 0.00 0.00 0.00 86 1012.8
20260509155707 16 238 1.6 4.8 0.00 0.00 0.00 86 1012.8
20260509155200 16 285 1.6 4.8 0.00 0.00 0.00 86 1012.8
20260509154653 16 253 1.6 4.8 0.00 0.00 0.00 86 1012.8
20260509154146 16 251 1.6 3.2 0.00 0.00 0.00 86 1012.8
20260509152622 16 263 0.0 6.4 0.00 0.00 0.00 88 1013.1
20260509151101 16 289 1.6 4.8 0.00 0.00 0.00 89 1012.8
20260509150552 16 272 1.6 6.4 0.00 0.00 0.00 89 1012.8
20260509150044 16 267 1.6 6.4 0.00 0.00 0.00 89 1012.8
20260509145537 16 229 4.8 6.4 0.00 0.00 0.00 89 1012.8
20260509145029 16 249 3.2 6.4 0.00 0.00 0.00 90 1012.8
20260509144522 15 230 3.2 6.4 0.00 0.00 0.00 90 1013.1
20260509144013 15 250 1.6 4.8 0.00 0.00 0.00 90 1012.8
20260509143506 15 223 3.2 4.8 0.00 0.00 0.00 90 1012.8
20260509142959 15 234 3.2 3.2 0.00 0.00 0.00 90 1012.8
20260509141943 15 261 1.6 4.8 0.00 0.00 0.00 90 1012.4
20260509140420 15 256 0.0 4.8 0.00 0.00 0.00 90 1012.8
20260509135913 15 253 1.6 4.8 0.00 0.00 0.00 90 1012.8
20260509135405 15 273 0.0 6.4 0.00 0.00 0.00 89 1012.4
20260509134858 15 254 3.2 6.4 0.00 0.00 0.00 89 1012.4
20260509134350 15 234 3.2 4.8 0.00 0.00 0.00 89 1012.4
20260509133843 16 243 4.8 4.8 0.00 0.00 0.00 88 1012.4
20260509133335 16 224 1.6 4.8 0.00 0.00 0.00 88 1012.4
20260509132828 16 195 1.6 4.8 0.00 0.00 0.00 87 1012.4
20260509132320 16 252 0.0 4.8 0.00 0.00 0.00 88 1012.4
20260509131812 16 235 1.6 4.8 0.00 0.00 0.00 88 1012.4
20260509130757 16 341 0.0 1.6 0.00 0.00 0.00 88 1012.4
20260509130249 16 345 0.0 1.6 0.00 0.00 0.00 88 1012.4
20260509125742 16 339 0.0 1.6 0.00 0.00 0.00 88 1012.1
20260509125234 15 342 1.6 1.6 0.00 0.00 0.00 89 1012.1
20260509124726 15 345 1.6 11.3 0.00 0.00 0.00 88 1012.1
20260509124219 15 2 1.6 11.3 0.00 0.00 0.00 89 1012.1
20260509123712 15 12 3.2 6.4 0.00 0.00 0.00 89 1012.4
20260509122656 15 351 0.0 6.4 0.00 0.00 0.00 89 1012.1
20260509122149 15 129 4.8 6.4 0.00 0.00 0.00 89 1012.1
20260509121641 15 5 0.0 6.4 0.00 0.00 0.00 89 1012.1
20260509120626 15 86 3.2 4.8 0.00 0.00 0.00 89 1012.1
20260509115610 15 261 0.0 6.4 0.00 0.00 0.00 89 1012.1
20260509115102 15 51 3.2 4.8 0.00 0.00 0.00 89 1012.1
20260509114555 15 150 3.2 3.2 0.00 0.00 0.00 89 1012.1
20260509114047 15 18 1.6 3.2 0.00 0.00 0.00 89 1012.1
20260509113540 15 46 3.2 3.2 0.00 0.00 0.00 89 1012.1
20260509113033 15 4 1.6 3.2 0.00 0.00 0.00 89 1012.1
20260509112525 15 355 0.0 3.2 0.00 0.00 0.00 89 1012.1
20260509112018 15 183 1.6 3.2 0.00 0.00 0.00 90 1012.1
20260509111002 15 355 1.6 3.2 0.00 0.00 0.00 90 1012.1
20260509110454 15 1 0.0 4.8 0.00 0.00 0.00 90 1012.1
20260509105947 15 6 0.0 4.8 0.00 0.00 0.00 90 1012.1
20260509105439 15 34 0.0 6.4 0.00 0.00 0.00 90 1012.4
20260509104932 15 103 4.8 6.4 0.00 0.00 0.00 90 1012.1
20260509104424 15 114 4.8 6.4 0.00 0.00 0.00 90 1012.4
20260509103917 15 248 1.6 6.4 0.00 0.00 0.00 90 1012.4
20260509102902 15 225 1.6 6.4 0.00 0.00 0.00 90 1012.4
20260509101846 15 286 0.0 4.8 0.00 0.00 0.00 91 1012.4
20260509101339 15 143 3.2 4.8 0.00 0.00 0.00 90 1012.4
20260509100830 15 147 0.0 4.8 0.00 0.00 0.00 91 1012.4
20260509100323 15 150 3.2 4.8 0.00 0.00 0.00 91 1012.4
20260509095309 15 186 0.0 6.4 0.00 0.00 0.00 91 1012.4
20260509094800 15 36 3.2 4.8 0.00 0.00 0.00 91 1012.4
20260509094252 15 193 3.2 6.4 0.00 0.00 0.00 91 1012.4
20260509093237 15 111 3.2 6.4 0.00 0.00 0.00 91 1012.8
20260509092223 15 29 1.6 4.8 0.00 0.00 0.00 91 1012.4
20260509091714 15 250 0.0 4.8 0.00 0.00 0.00 91 1012.8
20260509091207 15 218 1.6 4.8 0.00 0.00 0.00 91 1012.8
20260509090700 15 226 0.0 3.2 0.00 0.00 0.00 91 1012.8
20260509090151 15 230 0.0 3.2 0.00 0.00 0.00 91 1012.4
20260509085644 15 208 1.6 3.2 0.00 0.00 0.00 91 1012.8
20260509085137 15 153 3.2 3.2 0.00 0.00 0.00 91 1012.8
20260509084629 15 170 1.6 4.8 0.00 0.00 0.00 91 1012.8
20260509084122 15 146 1.6 4.8 0.00 0.00 0.00 91 1012.8
20260509083613 15 137 3.2 3.2 0.00 0.00 0.00 91 1012.8
20260509083107 15 62 3.2 4.8 0.00 0.00 0.00 91 1012.8
20260509082558 15 358 1.6 4.8 0.00 0.00 0.00 91 1012.8
20260509082051 15 96 1.6 4.8 0.00 0.00 0.00 91 1012.8
20260509081544 15 202 1.6 4.8 0.00 0.00 0.00 91 1013.1
20260509081036 15 152 3.2 4.8 0.00 0.00 0.00 91 1012.8
20260509080528 15 241 1.6 6.4 0.00 0.00 0.00 91 1013.1
20260509080020 15 235 0.0 6.4 0.00 0.00 0.00 91 1013.1
20260509075513 15 253 3.2 6.4 0.00 0.00 0.00 91 1013.1
20260509075005 15 267 1.6 6.4 0.00 0.00 0.00 91 1013.4
20260509074458 15 232 4.8 6.4 0.00 0.00 0.00 91 1013.4
20260509073951 15 256 1.6 6.4 0.00 0.00 0.00 91 1013.4
20260509073443 15 200 3.2 6.4 0.00 0.00 0.00 91 1013.1
20260509072935 15 241 4.8 6.4 0.00 0.00 0.00 91 1013.4
20260509072428 15 227 4.8 4.8 0.00 0.00 0.00 91 1013.1
20260509071920 15 237 3.2 3.2 0.00 0.00 0.00 91 1013.1
20260509070904 15 265 0.0 4.8 0.00 0.00 0.00 91 1013.4
20260509070357 15 248 0.0 4.8 0.00 0.00 0.00 91 1013.4
20260509065849 15 282 1.6 4.8 0.00 0.00 0.00 91 1013.4
20260509065342 15 295 1.6 3.2 0.00 0.00 0.00 91 1013.4
20260509064834 15 293 3.2 3.2 0.00 0.00 0.00 91 1013.4
20260509064327 15 282 0.0 1.6 0.00 0.00 0.00 91 1013.4
20260509063311 15 283 0.0 4.8 0.00 0.00 0.00 91 1013.4
20260509061242 15 176 0.0 4.8 0.00 0.00 0.00 91 1013.4
20260509060734 15 256 0.0 4.8 0.00 0.00 0.00 91 1013.4
20260509060226 15 259 0.0 4.8 0.00 0.00 0.00 91 1013.4
20260509055719 15 254 1.6 4.8 0.00 0.00 0.00 91 1013.4
20260509055211 15 259 0.0 3.2 0.00 0.00 0.00 91 1013.8
20260509054704 15 262 1.6 3.2 0.00 0.00 0.00 91 1013.4
20260509053648 15 261 0.0 4.8 0.00 0.00 0.00 91 1013.4
20260509053140 15 276 1.6 4.8 0.00 0.00 0.00 91 1013.4
20260509052633 15 271 0.0 3.2 0.00 0.00 0.00 91 1013.8
20260509052125 15 310 1.6 4.8 0.00 0.00 0.00 91 1013.8
20260509051617 15 282 3.2 4.8 0.00 0.00 0.00 91 1013.4
20260509051110 15 273 1.6 4.8 0.00 0.00 0.00 91 1013.4
20260509050602 15 266 4.8 4.8 0.00 0.00 0.00 91 1013.4
20260509045547 15 288 0.0 3.2 0.00 0.00 0.00 91 1013.4
20260509045040 15 272 1.6 4.8 0.00 0.00 0.00 91 1013.4
20260509044024 15 251 1.6 4.8 0.00 0.00 0.00 91 1013.4
20260509043517 15 243 3.2 4.8 0.00 0.00 0.00 91 1013.4
20260509043009 15 312 3.2 6.4 0.00 0.00 0.00 91 1013.4
20260509041954 14 294 0.0 3.2 0.00 0.00 0.00 91 1013.1
20260509041447 14 261 0.0 6.4 0.00 0.00 0.00 91 1013.1
20260509040939 14 243 1.6 9.7 0.00 0.00 0.00 91 1013.1
20260509035924 15 215 6.4 11.3 0.00 0.00 0.00 91 1013.1
20260509035417 15 214 6.4 11.3 0.00 0.00 0.00 91 1013.1
20260509034908 15 298 3.2 11.3 0.00 0.00 0.00 91 1013.4
20260509033853 15 210 6.4 11.3 0.00 0.00 0.00 90 1013.1
20260509033346 15 258 4.8 11.3 0.00 0.00 0.00 90 1013.1
20260509031823 15 217 4.8 12.9 0.00 0.00 0.00 90 1012.8
20260509031315 15 259 6.4 11.3 0.00 0.00 0.00 90 1012.8
20260509030807 15 257 9.7 11.3 0.00 0.00 0.00 90 1012.4
20260509030300 15 303 6.4 11.3 0.00 0.00 0.00 89 1012.4
20260509025753 15 246 6.4 12.9 0.00 0.00 0.00 89 1012.4
20260509025244 15 270 3.2 12.9 0.00 0.00 0.00 89 1012.4
20260509024230 15 219 9.7 14.5 0.00 0.00 0.00 88 1012.4